軌道要素
Epoch 2021 Mar. 7.0 TT = JDT 2459280.5
T 2021 Mar. 15.27438 TT Rudenko
q 1.2684800 (2000.0) P Q
z +0.0109674 Peri. 82.27295 -0.25948728 +0.96326287
+/-0.0001078 Node 188.34765 +0.58486714 +0.21377814
e 0.9860880 Incl. 151.52534 +0.76850295 +0.16255325
From 114 observations 2020 Dec. 26-2021 Feb. 20, mean residual 0".5.
|